Change the Weather History Date:

Wednesday, April 10, 2013

  Actual Average Record
Temperature  
Mean Temperature 36 °F -  
Max Temperature 39 °F 51 °F 75 °F (2006)
Min Temperature 32 °F 30 °F 21 °F (2012)
Degree Days  
Heating Degree Days 30    
Moisture  
Dew Point 17 °F    
Average Humidity 47    
Maximum Humidity 65    
Minimum Humidity 31    
Precipitation  
Precipitation 0.00 in - - ()
Sea Level Pressure  
Sea Level Pressure 30.07 in    
Wind  
Wind Speed 10 mph (NE)    
Max Wind Speed 16 mph    
Max Gust Speed 24 mph    
Visibility 10 miles    
Events      
Averages and records for this station are not official NWS values.
T = Trace of Precipitation, MM = Missing Value Source: NWS Daily Summary

Daily Weather History Graph

Daily Weather History Graph

Search for Another Location

Airport or City:

Trip Planner

Search our weather history database for the weather conditions in past years. The results will help you decide how hot, cold, wet, or windy it might be!

Date:

Astronomy

Apr. 10, 2013 Rise Set
Actual Time 6:37 AM CDT 7:54 PM CDT
Civil Twilight 6:06 AM CDT 8:25 PM CDT
Nautical Twilight 5:30 AM CDT 9:02 PM CDT
Astronomical Twilight 4:50 AM CDT 9:41 PM CDT
Moon 6:32 AM CDT (4/10) 8:34 PM CDT (4/10)
Length of Visible Light 14h 18m
Length of Day
13h 17m
New Moon, 0% of the Moon is Illuminated
Apr 10
New Moon
Apr 18
First Quarter
Apr 25
Full
May 2
Last Quarter
May 9
New

Hourly Weather History & Observations

Time (CDT) Temp. Windchill Dew Point Humidity Pressure Visibility Wind Dir Wind Speed Gust Speed Precip Events Conditions
12:11 AM 35.6 °F 30.7 °F 21.2 °F 56% 30.20 in 10.0 mi NE 5.8 mph - N/A   Mostly Cloudy
12:31 AM 35.6 °F 30.7 °F 21.2 °F 56% 30.19 in 10.0 mi NE 5.8 mph - N/A   Overcast
12:50 AM 35.6 °F 29.9 °F 21.2 °F 56% 30.20 in 10.0 mi NNE 6.9 mph - N/A   Overcast
1:11 AM 35.6 °F 30.7 °F 21.2 °F 56% 30.20 in 10.0 mi NNE 5.8 mph - N/A   Overcast
1:32 AM 35.6 °F 29.9 °F 21.2 °F 56% 30.21 in 10.0 mi NE 6.9 mph - N/A   Overcast
1:51 AM 35.6 °F 29.2 °F 21.2 °F 56% 30.19 in 10.0 mi NNE 8.1 mph - N/A   Overcast
2:11 AM 35.6 °F 29.2 °F 21.2 °F 56% 30.15 in 10.0 mi NNE 8.1 mph - N/A   Overcast
2:51 AM 33.8 °F 25.8 °F 23.0 °F 65% 30.11 in 10.0 mi NE 10.4 mph 19.6 mph N/A   Clear
3:31 AM 33.8 °F 27.7 °F 23.0 °F 65% 30.14 in 10.0 mi North 6.9 mph 16.1 mph N/A   Overcast
7:11 AM 32.0 °F 22.5 °F 21.2 °F 64% 30.10 in 10.0 mi NE 12.7 mph - N/A   Overcast
7:31 AM 32.0 °F 25.6 °F 21.2 °F 64% 30.10 in 10.0 mi NE 6.9 mph 17.3 mph N/A   Overcast
7:51 AM 32.0 °F 23.0 °F 21.2 °F 64% 30.12 in 10.0 mi NNE 11.5 mph - N/A   Overcast
8:11 AM 32.0 °F 23.6 °F 21.2 °F 64% 30.11 in 10.0 mi NNE 10.4 mph - N/A   Overcast
8:31 AM 32.0 °F 24.8 °F 21.2 °F 64% 30.12 in 10.0 mi NNE 8.1 mph 17.3 mph N/A   Overcast
8:51 AM 33.8 °F 23.9 °F 21.2 °F 60% 30.13 in 10.0 mi NNE 15.0 mph 18.4 mph N/A   Overcast
9:11 AM 33.8 °F 24.3 °F 19.4 °F 56% 30.13 in 10.0 mi NE 13.8 mph 21.9 mph N/A   Overcast
9:31 AM 33.8 °F 25.8 °F 19.4 °F 56% 30.12 in 10.0 mi NNE 10.4 mph 17.3 mph N/A   Overcast
9:51 AM 35.6 °F 28.6 °F 19.4 °F 52% 30.10 in 10.0 mi NE 9.2 mph 19.6 mph N/A   Overcast
10:31 AM 35.6 °F 25.9 °F 17.6 °F 48% 30.12 in 10.0 mi NNE 16.1 mph 21.9 mph N/A   Overcast
10:51 AM 35.6 °F 27.1 °F 17.6 °F 48% 30.11 in 10.0 mi NE 12.7 mph 19.6 mph N/A   Mostly Cloudy
11:11 AM 35.6 °F 27.1 °F 19.4 °F 52% 30.11 in 10.0 mi NNE 12.7 mph 21.9 mph N/A   Overcast
11:31 AM 35.6 °F 27.1 °F 19.4 °F 52% 30.11 in 10.0 mi NNE 12.7 mph 18.4 mph N/A   Overcast
11:51 AM 35.6 °F 27.5 °F 19.4 °F 52% 30.10 in 10.0 mi NE 11.5 mph 24.2 mph N/A   Overcast
12:11 PM 35.6 °F 25.9 °F 17.6 °F 48% 30.10 in 10.0 mi NNE 16.1 mph 24.2 mph N/A   Overcast
12:31 PM 37.4 °F 29.3 °F 19.4 °F 48% 30.07 in 10.0 mi NE 12.7 mph 23.0 mph N/A   Overcast
12:52 PM 39.2 °F 30.5 °F 17.6 °F 42% 30.07 in 10.0 mi NNE 16.1 mph 23.0 mph N/A   Overcast
1:11 PM 37.4 °F 28.5 °F 17.6 °F 45% 30.08 in 10.0 mi NE 15.0 mph 23.0 mph N/A   Overcast
1:31 PM 39.2 °F 32.5 °F 17.6 °F 42% 30.07 in 10.0 mi NE 10.4 mph 19.6 mph N/A   Overcast
1:52 PM 39.2 °F 32.5 °F 17.6 °F 42% 30.11 in 10.0 mi NE 10.4 mph 20.7 mph N/A   Overcast
2:11 PM 39.2 °F 31.6 °F 17.6 °F 42% 30.12 in 10.0 mi NNE 12.7 mph - N/A   Overcast
2:31 PM 39.2 °F 33.0 °F 17.6 °F 42% 30.11 in 10.0 mi NE 9.2 mph 18.4 mph N/A   Overcast
2:52 PM 39.2 °F 31.2 °F 17.6 °F 42% 30.10 in 10.0 mi NE 13.8 mph - N/A   Overcast
3:11 PM 39.2 °F 33.0 °F 17.6 °F 42% 30.11 in 10.0 mi NNE 9.2 mph 16.1 mph N/A   Overcast
3:31 PM 39.2 °F 31.6 °F 17.6 °F 42% 30.10 in 10.0 mi NE 12.7 mph 16.1 mph N/A   Overcast
3:52 PM 39.2 °F 32.5 °F 17.6 °F 42% 30.08 in 10.0 mi NNE 10.4 mph - N/A   Mostly Cloudy
4:11 PM 39.2 °F 31.6 °F 17.6 °F 42% 30.06 in 10.0 mi NNE 12.7 mph 18.4 mph N/A   Scattered Clouds
4:31 PM 39.2 °F 33.0 °F 21.2 °F 49% 30.05 in 10.0 mi NE 9.2 mph 20.7 mph N/A   Clear
4:51 PM 39.2 °F 33.6 °F 19.4 °F 45% 30.04 in 10.0 mi ENE 8.1 mph - N/A   Clear
5:11 PM 39.2 °F 31.2 °F 12.2 °F 33% 30.04 in 10.0 mi NE 13.8 mph 20.7 mph N/A   Scattered Clouds
5:31 PM 39.2 °F 32.0 °F 12.2 °F 33% 30.04 in 10.0 mi ENE 11.5 mph 19.6 mph N/A   Mostly Cloudy
5:51 PM 39.2 °F 32.0 °F 10.4 °F 31% 30.04 in 10.0 mi NE 11.5 mph - N/A   Overcast
6:11 PM 39.2 °F 33.0 °F 12.2 °F 33% 30.03 in 10.0 mi NE 9.2 mph 18.4 mph N/A   Overcast
6:31 PM 39.2 °F 32.0 °F 10.4 °F 31% 30.03 in 10.0 mi NE 11.5 mph 18.4 mph N/A   Overcast
6:51 PM 39.2 °F 32.5 °F 10.4 °F 31% 30.02 in 10.0 mi NE 10.4 mph 20.7 mph N/A   Overcast
7:11 PM 39.2 °F 31.6 °F 10.4 °F 31% 30.02 in 10.0 mi NE 12.7 mph 17.3 mph N/A   Overcast
7:31 PM 37.4 °F 30.8 °F 10.4 °F 33% 30.01 in 10.0 mi NE 9.2 mph 16.1 mph N/A   Overcast
7:51 PM 37.4 °F 29.8 °F 10.4 °F 33% 29.99 in 10.0 mi NE 11.5 mph 18.4 mph N/A   Mostly Cloudy
8:11 PM 37.4 °F 30.8 °F 12.2 °F 36% 29.96 in 10.0 mi NE 9.2 mph - N/A   Scattered Clouds
8:31 PM 37.4 °F 29.8 °F 12.2 °F 36% 29.96 in 10.0 mi ENE 11.5 mph - N/A   Mostly Cloudy
8:51 PM 37.4 °F 30.8 °F 12.2 °F 36% 29.94 in 10.0 mi ENE 9.2 mph 17.3 mph N/A   Mostly Cloudy
9:11 PM 37.4 °F 30.3 °F 14.0 °F 38% 29.94 in 10.0 mi NE 10.4 mph 17.3 mph N/A   Overcast
9:31 PM 37.4 °F 30.3 °F 15.8 °F 41% 29.95 in 10.0 mi NE 10.4 mph 23.0 mph N/A   Overcast
9:51 PM 35.6 °F 27.1 °F 15.8 °F 44% 29.97 in 10.0 mi NE 12.7 mph 21.9 mph N/A   Overcast
10:11 PM 35.6 °F 26.6 °F 15.8 °F 44% 29.96 in 10.0 mi NE 13.8 mph 21.9 mph N/A   Overcast
10:31 PM 35.6 °F 28.0 °F 15.8 °F 44% 29.99 in 10.0 mi NE 10.4 mph 17.3 mph N/A   Overcast
10:51 PM 35.6 °F 28.0 °F 17.6 °F 48% 29.99 in 10.0 mi NNE 10.4 mph - N/A   Overcast
11:11 PM 35.6 °F 28.0 °F 17.6 °F 48% 29.98 in 10.0 mi NE 10.4 mph 19.6 mph N/A   Overcast
11:31 PM 35.6 °F 27.5 °F 17.6 °F 48% 29.97 in 10.0 mi NE 11.5 mph 19.6 mph N/A   Overcast
11:51 PM 35.6 °F 28.0 °F 17.6 °F 48% 29.96 in 10.0 mi NE 10.4 mph 17.3 mph N/A   Overcast